Missoula, MT

11:10 AM MST on February 11, 2016 (GMT -0700)
Missoula International

Weather History for KMSO - January, 2013

Change the Weather History Date:

Saturday, January 12, 2013

  Actual Average Record
Temperature  
Mean Temperature 8 °F 25 °F  
Max Temperature 13 °F 33 °F 54 °F (1953)
Min Temperature 2 °F 18 °F -23 °F (1963)
Degree Days  
Heating Degree Days 57 40  
Month to date heating degree days 521 487  
Since 1 July heating degree days 3303 3659  
Cooling Degree Days 0 0  
Month to date cooling degree days 0 0  
Year to date cooling degree days 0 0  
Moisture  
Dew Point 5 °F    
Average Humidity 84    
Maximum Humidity 91    
Minimum Humidity 76    
Precipitation  
Precipitation 0.04 in 0.02 in 0.54 in (1906)
Month to date precipitation 0.79 0.36  
Year to date precipitation 0.79 0.36  
Snow  
Snow 0.10 in - - ()
Month to date snowfall 6.0  
Year to date snowfall 6.0  
Since 1 July snowfall 27.1  
Snow Depth 6.00 in    
Sea Level Pressure  
Sea Level Pressure 30.29 in    
Wind  
Wind Speed 3 mph (SSE)    
Max Wind Speed 13 mph    
Max Gust Speed 14 mph    
Visibility 6 miles    
Events Snow    
T = Trace of Precipitation, MM = Missing Value Source: NWS Daily Summary

Daily Weather History Graph

Daily Weather History Graph

Search for Another Location

Airport or City:

Trip Planner

Search our weather history database for the weather conditions in past years. The results will help you decide how hot, cold, wet, or windy it might be!

Date:

Astronomy

Jan. 12, 2013 Rise Set
Actual Time 8:18 AM MST 5:11 PM MST
Civil Twilight 7:44 AM MST 5:45 PM MST
Nautical Twilight 7:06 AM MST 6:23 PM MST
Astronomical Twilight 6:30 AM MST 7:00 PM MST
Moon 8:33 AM MST (1/12) 6:53 PM MST (1/12)
Length of Visible Light 10h 01m
Length of Day
8h 52m
New Moon, 1% of the Moon is Illuminated
Jan 12
New Moon
Jan 18
First Quarter
Jan 26
Full
Feb 3
Last Quarter
Feb 10
New

Hourly Weather History & Observations

Time (MST) Temp. Windchill Dew Point Humidity Pressure Visibility Wind Dir Wind Speed Gust Speed Precip Events Conditions
12:51 AM 3.2 °F - 1.4 °F 92% 30.15 in 10.0 mi Calm Calm - N/A   Mostly Cloudy
12:53 AM 3.0 °F - 1.0 °F 91% 30.34 in 10.0 mi Calm Calm - N/A   Mostly Cloudy
1:53 AM 6.1 °F -0.9 °F 1.9 °F 83% 30.34 in 10.0 mi WNW 3.5 mph - N/A   Scattered Clouds
2:37 AM 3.2 °F - 1.4 °F 92% 30.17 in 10.0 mi Calm Calm - N/A   Mostly Cloudy
2:53 AM 3.9 °F - -0.0 °F 84% 30.35 in 10.0 mi Calm Calm - N/A   Overcast
3:53 AM 3.0 °F - -0.0 °F 87% 30.34 in 7.0 mi Calm Calm - N/A   Overcast
4:53 AM 5.0 °F - 1.9 °F 87% 30.33 in 10.0 mi Calm Calm - N/A   Overcast
5:53 AM 6.1 °F -0.9 °F 3.0 °F 87% 30.34 in 4.0 mi SSE 3.5 mph - 0.00 in Snow Light Snow
6:10 AM 6.8 °F - 3.2 °F 85% 30.16 in 4.0 mi Calm Calm - 0.00 in Snow Light Snow
6:53 AM 6.1 °F -0.9 °F 3.0 °F 87% 30.35 in 6.0 mi SSE 3.5 mph - 0.00 in Snow Light Snow
7:53 AM 7.0 °F - 3.9 °F 87% 30.36 in 4.0 mi Calm Calm - 0.00 in Snow Light Snow
8:53 AM 8.1 °F -2.0 °F 5.0 °F 87% 30.37 in 4.0 mi SE 5.8 mph - 0.00 in Snow Light Snow
9:53 AM 8.6 °F -3.7 °F 3.2 °F 79% 30.20 in 3.0 mi SSE 8.1 mph - N/A Snow Light Snow
10:18 AM 8.6 °F -5.5 °F 3.2 °F 79% 30.20 in 3.0 mi SSE 10.4 mph - 0.00 in Snow Light Snow
10:23 AM 8.6 °F -5.5 °F 3.2 °F 79% 30.20 in 2.5 mi SSE 10.4 mph - 0.00 in Snow Light Snow
10:33 AM 8.6 °F -4.7 °F 3.2 °F 79% 30.20 in 1.2 mi SSE 9.2 mph - 0.00 in Snow Light Snow
10:42 AM 8.6 °F -4.7 °F 3.2 °F 79% 30.21 in 1.0 mi SE 9.2 mph - 0.00 in Snow Light Snow
10:53 AM 8.1 °F -3.2 °F 3.9 °F 83% 30.41 in 1.0 mi SE 6.9 mph - 0.00 in Snow Light Snow
11:16 AM 8.6 °F -1.3 °F 5.0 °F 85% 30.20 in 1.2 mi SSE 5.8 mph - 0.00 in Snow Light Snow
11:41 AM 8.6 °F 2.0 °F 6.8 °F 92% 30.19 in 1.0 mi South 3.5 mph - 0.01 in Snow Light Snow
11:53 AM 9.0 °F - 6.1 °F 88% 30.39 in 1.2 mi Calm Calm - 0.01 in Snow Light Snow
12:14 PM 8.6 °F - 6.8 °F 92% 30.19 in 1.5 mi Calm Calm - 0.00 in Snow Light Snow
12:19 PM 10.4 °F - 6.8 °F 85% 30.19 in 1.0 mi Calm Calm - 0.00 in Snow Light Snow
12:36 PM 10.4 °F - 6.8 °F 85% 30.19 in 1.5 mi Calm Calm - 0.00 in Snow Light Snow
12:51 PM 10.4 °F - 6.8 °F 85% 30.18 in 1.2 mi Calm Calm - 0.00 in Snow Light Snow
12:52 PM 10.9 °F - 6.1 °F 81% 30.38 in 1.2 mi Calm Calm - 0.01 in Snow Light Snow
1:08 PM 10.4 °F - 6.8 °F 85% 30.18 in 1.0 mi Calm Calm - 0.00 in Snow Light Snow
1:53 PM 12.0 °F - 8.1 °F 84% 30.38 in 1.0 mi Calm Calm - 0.01 in Snow Light Snow
2:08 PM 12.2 °F - 8.6 °F 85% 30.19 in 1.2 mi Calm Calm - 0.01 in Snow Light Snow
2:15 PM 12.2 °F - 8.6 °F 85% 30.19 in 1.5 mi Calm Calm - 0.01 in Snow Light Snow
2:25 PM 12.2 °F - 8.6 °F 85% 30.19 in 2.5 mi Calm Calm - 0.01 in Snow Light Snow
2:34 PM 12.2 °F - 8.6 °F 85% 30.19 in 3.0 mi Calm Calm - 0.01 in Snow Light Snow
2:53 PM 10.9 °F - 8.1 °F 88% 30.38 in 10.0 mi Calm Calm - 0.01 in   Mostly Cloudy
3:05 PM 10.4 °F - 8.6 °F 92% 30.19 in 10.0 mi Calm Calm - N/A   Mostly Cloudy
3:53 PM 12.9 °F - 8.1 °F 81% 30.39 in 10.0 mi Calm Calm - N/A   Overcast
4:53 PM 12.0 °F - 7.0 °F 80% 30.39 in 10.0 mi Calm Calm - N/A   Overcast
5:53 PM 10.0 °F - 6.1 °F 84% 30.40 in 10.0 mi Calm Calm - N/A   Overcast
7:53 PM 10.9 °F - 7.0 °F 84% 30.41 in 10.0 mi Calm Calm - N/A   Overcast
8:53 PM 10.0 °F 1.8 °F 7.0 °F 87% 30.40 in 10.0 mi SE 4.6 mph - N/A   Overcast
9:53 PM 10.0 °F 0.4 °F 5.0 °F 80% 30.41 in 10.0 mi SE 5.8 mph - N/A   Overcast
10:53 PM 9.0 °F -5.1 °F 6.1 °F 88% 30.40 in 10.0 mi SSE 10.4 mph - N/A   Overcast
11:53 PM 9.0 °F -5.1 °F 5.0 °F 84% 30.41 in 10.0 mi SE 10.4 mph - N/A   Overcast